STARLINK-33906 (63785 NORAD) Tracking and Keplerian Element Data

This shows tracking and keplerian element data for the satellite.

Feedback or suggestion? Click here.




ElementValue
Catalog63785
NameSTARLINK-33906
Epoch Orbit3657
Epoch Day353.41235876
Epoch Year2025
RAAN145.9956
Inclination42.9983
Eccentricity7.55E-05
Argument of Perigee276.2582
Mean Anonmoly83.8184
Mean Motion15.27600211
Decay Rate0.00024493
L11 63785U 25091L 25353.41235876 .00024493 00000+0 89607-3 0 9994
L22 63785 42.9983 145.9956 0000755 276.2582 83.8184 15.27600211 36572



Live tracking and technical data element details for STARLINK-33906 (NORAD 63785). STARLINK-33906 can be tracked NOW for your location showing map with azimuth and elevation plus other details from your city location.







IsCatalogInMostPopularTable: catalog: 63785, numindb: 7
Update: records affected: 1



GetName: 63785 STARLINK-33906

Hit Count: updated at: Mon, 20 Apr 2026 09:04:28 GMT